ICE342 BIKF-EFHK

Flight info

Callsign ICE342
Flight time N/A
Altitude 35000
Route LUTER2A LUTER DCT 64N010W 6330N00000E/N0451F350 DCT MORIG DCT TIGBA DCT UXADA Y349 AMROT Y362 LAKUT LAKUT7A
Aircraft B38M/M-SDE1FGHILORVWXY/HB1

Departure

Time N/A
Airport Keflavik International Airport (BIKF)

Arrival

Time 2026-05-07 18:42
Airport Helsinki Vantaa Airport (EFHK)
Time Latitude Longitude Altitude Speed Heading
2026-05-07 18:06 62.11234 16.94254 35133 ft 517 kts 114°
2026-05-07 18:06 62.09860 17.01361 35143 ft 517 kts 114°
2026-05-07 18:07 62.07095 17.15542 35144 ft 518 kts 114°
2026-05-07 18:07 62.02431 17.39217 35146 ft 518 kts 114°
2026-05-07 18:08 61.96822 17.67439 35147 ft 518 kts 115°
2026-05-07 18:08 61.91125 17.95487 35150 ft 518 kts 115°
2026-05-07 18:09 61.87576 18.12902 35151 ft 518 kts 115°
2026-05-07 18:09 61.84764 18.26558 35153 ft 518 kts 115°
2026-05-07 18:10 61.81864 18.40545 35153 ft 518 kts 115°
2026-05-07 18:10 61.78955 18.54474 35154 ft 517 kts 115°
2026-05-07 18:11 61.76048 18.68305 35152 ft 517 kts 116°
2026-05-07 18:11 61.73118 18.82152 35151 ft 517 kts 116°
2026-05-07 18:12 61.70171 18.95988 35157 ft 516 kts 116°
2026-05-07 18:12 61.67217 19.09763 35154 ft 516 kts 116°
2026-05-07 18:13 61.64266 19.23439 35155 ft 516 kts 116°
2026-05-07 18:13 61.61284 19.37163 35153 ft 515 kts 116°
2026-05-07 18:14 61.58291 19.50852 35153 ft 515 kts 117°
2026-05-07 18:14 61.55288 19.64491 35153 ft 515 kts 117°
2026-05-07 18:15 61.52090 19.77893 35154 ft 513 kts 119°
2026-05-07 18:15 61.48866 19.91219 35153 ft 513 kts 119°
2026-05-07 18:16 61.45630 20.04543 35155 ft 513 kts 120°
2026-05-07 18:16 61.42406 20.17743 35156 ft 513 kts 120°
2026-05-07 18:17 61.39151 20.30984 35153 ft 512 kts 120°
2026-05-07 18:17 61.35886 20.44191 35152 ft 512 kts 120°
2026-05-07 18:18 61.32608 20.57370 35150 ft 512 kts 120°
2026-05-07 18:18 61.29310 20.70549 35155 ft 512 kts 120°
2026-05-07 18:19 61.26008 20.83665 35155 ft 512 kts 121°
2026-05-07 18:19 61.22698 20.96737 35157 ft 512 kts 121°
2026-05-07 18:20 61.19368 21.09810 35155 ft 512 kts 121°
2026-05-07 18:20 61.16031 21.22832 35152 ft 511 kts 121°
2026-05-07 18:21 61.12705 21.35738 34917 ft 509 kts 121°
2026-05-07 18:21 61.11039 21.42174 34272 ft 508 kts 121°
2026-05-07 18:21 61.09365 21.48618 33494 ft 509 kts 121°
2026-05-07 18:21 61.07689 21.55058 32908 ft 506 kts 122°
2026-05-07 18:22 61.06031 21.61409 32468 ft 499 kts 122°
2026-05-07 18:22 61.05477 21.63526 32315 ft 497 kts 122°
2026-05-07 18:22 61.02749 21.73922 31416 ft 492 kts 122°
2026-05-07 18:22 61.01116 21.80126 30870 ft 490 kts 123°
2026-05-07 18:23 60.99491 21.86279 30328 ft 488 kts 123°
2026-05-07 18:23 60.97871 21.92402 29697 ft 486 kts 123°
2026-05-07 18:23 60.96801 21.96433 29315 ft 483 kts 123°
2026-05-07 18:23 60.95201 22.02452 28782 ft 473 kts 123°
2026-05-07 18:24 60.93636 22.08319 28274 ft 464 kts 123°
2026-05-07 18:24 60.92082 22.14133 27734 ft 459 kts 123°
2026-05-07 18:24 60.90052 22.21702 27032 ft 457 kts 123°
2026-05-07 18:24 60.89026 22.25520 26673 ft 459 kts 123°
2026-05-07 18:25 60.87437 22.31414 26068 ft 474 kts 123°
2026-05-07 18:25 60.86849 22.33592 25861 ft 478 kts 123°
2026-05-07 18:25 60.85231 22.39577 25348 ft 481 kts 123°
2026-05-07 18:25 60.83584 22.45653 24812 ft 480 kts 123°
2026-05-07 18:26 60.81983 22.51543 24270 ft 477 kts 124°
2026-05-07 18:26 60.80373 22.57449 23710 ft 472 kts 124°
2026-05-07 18:26 60.78777 22.63293 23066 ft 468 kts 124°
2026-05-07 18:26 60.77188 22.69095 22502 ft 464 kts 123°
2026-05-07 18:27 60.75615 22.74823 21974 ft 460 kts 123°
2026-05-07 18:27 60.74052 22.80499 21451 ft 455 kts 123°
2026-05-07 18:27 60.72500 22.86121 20919 ft 451 kts 123°
2026-05-07 18:27 60.70960 22.91687 20398 ft 447 kts 123°
2026-05-07 18:28 60.69434 22.97185 19885 ft 443 kts 123°
2026-05-07 18:28 60.67923 23.02622 19371 ft 439 kts 123°
2026-05-07 18:28 60.66421 23.08012 18854 ft 435 kts 123°
2026-05-07 18:28 60.64950 23.13274 18343 ft 432 kts 123°
2026-05-07 18:29 60.63466 23.18575 17767 ft 430 kts 123°
2026-05-07 18:29 60.61970 23.23904 17245 ft 426 kts 123°
2026-05-07 18:29 60.60511 23.29092 16736 ft 421 kts 122°
2026-05-07 18:29 60.59061 23.34232 16230 ft 416 kts 122°
2026-05-07 18:30 60.57644 23.39248 15740 ft 412 kts 122°
2026-05-07 18:30 60.56213 23.44297 15231 ft 408 kts 122°
2026-05-07 18:30 60.54805 23.49261 14728 ft 404 kts 122°
2026-05-07 18:30 60.53406 23.54176 14248 ft 400 kts 122°
2026-05-07 18:31 60.52017 23.59048 13730 ft 397 kts 122°
2026-05-07 18:31 60.50636 23.63881 13191 ft 393 kts 122°
2026-05-07 18:31 60.49275 23.68637 12699 ft 388 kts 122°
2026-05-07 18:31 60.47921 23.73355 12217 ft 383 kts 121°
2026-05-07 18:32 60.46590 23.77986 11748 ft 378 kts 121°
2026-05-07 18:32 60.45273 23.82560 11283 ft 373 kts 121°
2026-05-07 18:32 60.44202 23.87231 10794 ft 359 kts 104°
2026-05-07 18:32 60.44012 23.92081 10649 ft 334 kts 83°
2026-05-07 18:33 60.44310 23.96743 10495 ft 334 kts 82°
2026-05-07 18:33 60.44590 24.01303 10281 ft 327 kts 82°
2026-05-07 18:33 60.44843 24.05590 10028 ft 322 kts 82°
2026-05-07 18:33 60.45113 24.10247 9508 ft 322 kts 82°
2026-05-07 18:34 60.45367 24.14682 9100 ft 310 kts 82°
2026-05-07 18:34 60.45607 24.18913 8753 ft 296 kts 82°
2026-05-07 18:34 60.45836 24.22973 8397 ft 284 kts 83°
2026-05-07 18:34 60.46057 24.26912 8030 ft 281 kts 82°
2026-05-07 18:35 60.46276 24.30843 7637 ft 280 kts 82°
2026-05-07 18:35 60.46493 24.34757 7239 ft 279 kts 82°
2026-05-07 18:35 60.46702 24.38561 6740 ft 283 kts 83°
2026-05-07 18:35 60.46919 24.42512 6319 ft 274 kts 82°
2026-05-07 18:36 60.47110 24.46298 5877 ft 266 kts 86°
2026-05-07 18:36 60.47017 24.49993 5310 ft 266 kts 94°
2026-05-07 18:36 60.46853 24.53714 4813 ft 261 kts 93°
2026-05-07 18:36 60.46700 24.57354 4352 ft 257 kts 92°
2026-05-07 18:37 60.46552 24.60926 3937 ft 251 kts 92°
2026-05-07 18:37 60.46415 24.64324 3808 ft 232 kts 92°
2026-05-07 18:37 60.46284 24.67601 3697 ft 234 kts 92°
2026-05-07 18:37 60.46152 24.70888 3493 ft 233 kts 92°
2026-05-07 18:38 60.46020 24.74171 3299 ft 233 kts 92°
2026-05-07 18:38 60.45887 24.77446 3117 ft 233 kts 92°
2026-05-07 18:38 60.45692 24.80677 2909 ft 229 kts 105°
2026-05-07 18:38 60.44925 24.83334 2610 ft 218 kts 130°
2026-05-07 18:39 60.43833 24.85301 2323 ft 203 kts 146°
2026-05-07 18:39 60.42635 24.86641 2060 ft 193 kts 155°
2026-05-07 18:39 60.41436 24.87790 1861 ft 187 kts 154°
2026-05-07 18:39 60.40342 24.88904 1754 ft 171 kts 153°
2026-05-07 18:40 60.39286 24.89994 1555 ft 169 kts 153°
2026-05-07 18:40 60.38239 24.91076 1341 ft 168 kts 154°
2026-05-07 18:40 60.37231 24.92115 1124 ft 159 kts 154°
2026-05-07 18:40 60.36273 24.93104 915 ft 153 kts 155°
2026-05-07 18:41 60.35339 24.94069 716 ft 150 kts 154°
2026-05-07 18:41 60.34420 24.95035 509 ft 147 kts 154°
2026-05-07 18:41 60.33513 24.95973 318 ft 146 kts 154°
2026-05-07 18:41 60.32608 24.96877 180 ft 141 kts 156°
2026-05-07 18:42 60.31838 24.97670 154 ft 98 kts 155°
2026-05-07 18:42 60.31475 24.97990 156 ft 18 kts 195°
2026-05-07 18:42 60.31411 24.97845 158 ft 0 kts 244°
2026-05-07 18:42 60.31410 24.97841 158 ft 0 kts 244°
2026-05-07 18:44 60.31410 24.97789 158 ft 9 kts 292°
2026-05-07 18:45 60.31501 24.97679 158 ft 19 kts 333°
2026-05-07 18:45 60.31539 24.97640 158 ft 3 kts 332°
2026-05-07 18:45 60.31599 24.97575 159 ft 14 kts 331°
2026-05-07 18:45 60.31687 24.97486 161 ft 17 kts 332°
2026-05-07 18:46 60.31828 24.97355 163 ft 25 kts 328°
2026-05-07 18:46 60.31929 24.97190 166 ft 13 kts 269°
2026-05-07 18:46 60.31960 24.97056 169 ft 12 kts 331°
2026-05-07 18:46 60.32011 24.96974 169 ft 7 kts 270°
2026-05-07 18:47 60.31984 24.96908 169 ft 5 kts 219°
2026-05-07 18:47 60.31979 24.96900 169 ft 0 kts 218°